Wind_Speed
12 15 13 8 4 5 9 8 9 7 8 10 9 9 10 10 10 6 7 7 7 7 5 5 4 3 4 5 6 6 5 6 5 4 5 5 6 9 11 11 10 8 8 6 5 5 4 4 4
14 12 9 5 7 11 10 9 7 8 9 8 9 9 8 11 9 11 7 7 6 5 5 4 3 2 2 3 4 5 5 5 6 7 7 8 9 10 11 11 9 8 7 6 6 5 5 4 4
12 9 6 6 5 7 7 6 5 7 9 8 7 8 9 8 8 7 6 7 6 5 4 3 2 1 1 1 3 4 4 4 5 6 6 7 8 8 8 8 7 6 6 6 6 5 4 4 4
10 8 5 5 11 11 9 8 8 8 7 8 6 4 5 4 4 2 3 5 6 5 4 3 2 1 1 2 3 3 4 5 6 6 6 7 8 8 8 7 6 7 6 6 6 6 5 4 4
8 6 3 9 9 9 8 9 8 7 5 5 5 4 2 2 4 2 1 1 3 3 2 2 1 1 3 4 4 5 5 6 7 7 8 7 8 9 9 8 8 8 8 8 7 7 6 6 5
4 4 5 8 10 8 7 7 5 4 3 2 4 4 2 1 3 2 3 3 3 2 1 1 3 4 3 4 5 6 7 8 8 9 9 9 9 9 10 9 9 10 10 10 9 9 8 7 6
3 3 4 7 9 8 6 5 3 1 1 3 5 5 3 4 6 9 8 7 6 6 5 4 3 5 6 6 6 6 7 8 8 9 10 10 10 11 12 11 11 10 11 11 11 10 10 9 9
2 3 3 5 9 8 7 5 4 4 5 6 8 5 11 9 10 11 12 12 11 10 9 8 8 7 6 7 7 7 8 9 10 10 11 11 11 11 12 13 13 12 12 13 13 13 12 11 10
1 2 2 3 6 7 8 7 6 7 9 11 12 11 11 10 9 11 11 12 13 12 11 11 11 11 11 11 11 10 10 11 11 12 13 14 13 13 13 15 15 14 14 14 14 15 15 14 13
4 3 3 4 5 6 7 8 8 10 10 11 15 13 12 10 10 10 11 12 14 15 16 16 15 15 13 13 14 14 14 14 14 14 15 16 16 15 16 17 18 17 17 17 16 17 17 17 16
5 4 4 5 6 8 9 10 10 12 14 14 9 9 8 8 9 10 11 11 11 12 12 12 13 13 13 13 15 15 16 17 18 18 18 18 19 19 19 20 20 21 21 20 20 20 20 20 19
5 5 5 5 6 8 11 12 13 13 16 14 7 6 6 8 10 12 14 14 15 16 16 15 15 16 16 15 15 16 17 18 19 21 21 22 21 21 21 22 23 23 24 24 24 23 24 23 22
6 7 8 9 11 12 14 14 14 16 12 9 10 11 11 12 14 15 15 14 14 15 16 16 16 15 17 19 18 19 20 20 21 22 23 25 24 24 23 24 24 26 26 26 27 27 27 26 26
10 10 12 12 13 13 13 16 15 10 8 10 11 12 15 17 19 19 18 16 15 14 15 15 15 15 15 16 19 22 24 24 25 25 26 26 26 27 27 26 25 27 27 28 28 28 29 29 29
12 11 11 12 13 15 9 9 9 11 13 14 15 17 18 19 20 18 16 16 14 11 11 13 15 17 19 18 19 21 22 23 23 24 25 26 28 29 30 29 28 29 30 29 30 29 30 31 31
15 16 12 6 6 7 9 11 10 14 14 18 20 20 23 21 20 15 14 13 12 13 14 14 14 16 15 17 17 17 19 21 23 24 25 26 25 26 29 32 32 32 32 32 32 31 31 33 33
15 14 14 12 11 13 12 11 14 16 18 20 22 23 22 23 18 14 13 12 14 14 15 14 9 8 7 7 11 15 17 19 19 20 19 20 21 22 24 26 28 31 33 34 35 35 36 37 37
14 14 15 15 12 13 16 16 21 20 22 25 24 24 23 18 15 14 15 16 15 12 10 11 11 9 9 8 8 9 11 12 12 12 12 12 12 13 15 16 18 21 23 26 28 29 32 35 39
16 17 17 19 19 21 22 22 22 26 28 26 25 24 17 16 16 16 18 16 12 12 11 10 9 8 7 7 8 9 9 6 4 5 7 8 10 14 15 18 19 19 20 22 23 24 27 29 32
20 20 24 23 23 26 25 28 27 28 29 27 26 20 17 17 18 17 14 11 11 11 10 9 8 7 6 5 3 4 4 6 10 11 11 12 17 17 18 19 20 22 24 24 23 24 24 25 26
26 26 27 24 23 26 28 34 32 31 29 22 20 18 19 19 20 19 15 14 12 10 10 8 7 8 8 7 6 6 11 11 12 12 12 14 16 17 20 22 24 25 26 27 27 29 30 30 31
33 30 25 23 21 15 12 7 12 9 15 17 17 18 21 23 22 20 17 16 14 13 12 13 12 11 11 11 12 13 13 13 13 15 18 21 24 27 29 29 29 30 31 32 34 33 34 34 34
30 27 23 19 17 20 22 12 12 19 17 16 19 22 22 22 21 20 18 16 16 14 14 15 14 13 14 13 14 17 18 21 22 24 26 28 29 30 31 30 31 32 34 35 36 38 40 41 41
21 16 13 12 12 7 24 22 9 14 12 13 15 17 21 22 21 21 20 19 18 17 17 17 16 16 16 17 18 20 22 25 28 30 31 31 32 33 33 33 33 33 32 34 35 37 39 40 43
21 18 3 2 4 5 11 17 23 12 14 13 16 19 21 20 20 23 23 21 19 19 18 20 20 19 18 21 24 28 30 31 31 32 33 34 35 34 34 35 34 34 34 34 35 35 38 39 42
27 27 9 7 4 3 11 10 9 14 18 17 19 20 20 20 23 25 23 21 20 20 22 23 21 20 23 28 31 33 34 35 36 37 38 38 38 39 38 39 39 38 36 35 36 37 38 40 42
24 30 28 4 4 2 9 11 13 17 16 17 22 19 18 21 24 24 23 22 23 23 23 22 22 27 30 34 35 36 37 39 40 40 41 41 41 41 40 40 38 37 37 37 36 36 36 37 40
23 25 16 12 2 4 5 12 15 10 16 15 16 16 19 23 25 28 26 24 24 23 23 25 29 33 35 36 36 37 39 40 41 42 42 42 41 41 40 39 39 38 39 40 41 42 42 42 42
37 27 19 14 12 5 2 7 7 16 16 13 11 14 19 22 25 25 24 24 24 24 27 30 33 38 38 37 39 40 40 40 41 40 39 39 39 37 37 37 38 39 40 40 41 41 42 42 43
33 38 39 24 11 14 10 15 15 14 15 17 15 12 16 20 23 26 26 26 26 27 32 35 39 40 39 38 38 37 38 37 38 36 35 36 36 36 36 37 38 39 40 40 41 41 42 44 46
Wind_Direction
132 142 149 149 123 110 103 98 80 76 67 73 79 79 63 63 67 72 42 47 47 48 64 86 90 109 126 145 161 173 191 202 228 252 274 289 288 290 300 308 314 313 319 322 321 317 314 309 307
147 143 149 151 128 121 104 100 83 84 79 83 91 75 65 70 83 72 63 56 60 63 64 79 99 112 145 161 172 185 200 226 249 263 270 275 280 287 297 306 316 323 325 327 326 325 323 322 313
155 150 140 129 132 116 116 104 93 93 82 70 99 75 71 89 97 76 57 48 48 50 59 62 71 104 158 199 203 208 219 235 251 266 276 280 282 289 297 304 316 319 322 322 322 324 322 326 317
161 160 122 132 123 115 114 110 107 98 85 66 98 86 63 85 134 64 43 47 48 48 44 36 11 331 279 259 258 254 246 249 259 267 275 283 286 292 293 301 303 306 306 308 315 320 321 322 314
170 183 154 141 132 125 120 116 108 94 83 72 66 42 37 116 167 208 271 31 34 62 91 134 142 312 306 293 278 269 266 265 266 269 271 272 280 287 290 296 294 294 297 299 303 310 317 316 310
180 199 174 167 160 150 140 143 122 114 93 94 20 8 342 203 208 242 279 278 314 313 292 205 200 200 216 255 277 280 278 278 275 274 277 271 270 277 282 287 288 288 289 290 291 299 303 301 298
203 227 198 168 173 177 176 172 163 190 193 324 334 329 292 290 275 277 276 276 281 265 257 250 244 234 225 229 240 255 267 273 273 277 280 279 279 280 283 282 276 274 275 282 284 285 287 290 290
226 229 210 193 187 193 195 207 229 240 276 286 293 284 293 291 283 282 281 281 287 279 276 277 271 262 256 254 247 249 260 269 272 275 275 274 276 272 270 273 276 275 273 272 274 274 277 276 274
246 199 217 219 200 199 202 215 234 260 290 294 300 302 301 292 279 274 278 280 283 278 269 270 270 274 269 260 258 259 257 257 262 266 270 271 271 271 267 267 267 266 264 264 266 269 269 269 269
272 261 236 220 225 206 205 230 254 275 278 284 293 296 296 300 301 292 281 273 273 277 277 276 274 274 269 265 263 260 258 258 260 262 262 265 267 265 262 262 264 264 262 261 257 258 261 262 263
270 252 234 228 230 233 242 250 264 277 278 286 279 276 287 303 304 300 295 291 287 281 277 275 276 275 271 263 257 255 255 256 255 257 260 264 264 263 260 260 261 263 262 260 260 258 259 258 258
254 237 225 217 232 244 256 264 267 269 276 288 277 268 280 293 298 299 295 294 292 289 289 283 274 276 276 272 266 258 252 250 252 253 252 254 259 265 265 263 263 262 263 263 261 259 259 260 259
243 233 240 251 259 260 264 266 270 274 269 248 264 278 285 297 303 299 291 287 285 286 287 286 283 276 267 267 269 269 266 263 258 254 256 257 255 254 255 261 264 265 263 265 268 268 266 265 263
259 256 262 264 264 265 260 271 269 257 241 248 251 257 272 287 300 301 295 290 287 281 278 280 283 281 273 263 259 260 262 265 268 270 269 265 263 261 259 255 251 254 259 261 262 264 266 267 268
270 273 274 275 267 261 254 251 248 249 255 258 261 271 280 290 299 298 295 292 290 284 286 286 283 280 276 270 260 256 261 267 271 273 274 275 274 272 268 265 261 258 255 256 256 257 260 262 262
272 278 285 279 271 208 239 259 249 252 253 264 272 275 288 293 297 285 287 286 280 289 296 291 277 272 271 263 259 260 262 265 270 274 276 275 271 271 272 276 275 272 270 267 264 264 264 264 261
264 265 274 276 255 241 247 264 261 253 265 266 271 278 282 286 280 272 278 284 278 284 298 296 279 270 267 260 249 249 252 260 270 277 284 288 288 283 276 273 273 276 278 279 277 274 270 267 265
272 260 263 267 273 256 257 264 274 271 265 270 273 280 284 273 272 276 285 298 288 287 289 276 276 276 277 278 272 264 263 271 280 288 295 300 301 302 304 303 299 293 290 288 285 281 280 279 278
253 254 264 273 270 268 270 267 266 269 270 271 273 280 266 264 277 282 285 285 278 282 279 271 273 281 280 281 280 275 276 281 303 307 319 322 331 326 323 321 318 315 316 313 309 303 293 287 285
250 256 264 270 269 273 275 274 271 266 268 271 272 260 258 267 274 280 281 270 269 268 264 264 268 273 271 270 263 262 267 288 309 310 309 314 318 319 318 318 316 316 314 311 308 308 305 303 300
257 261 266 270 270 273 280 280 275 271 266 262 245 246 259 267 279 288 276 271 264 262 264 265 268 274 272 263 252 269 298 299 303 306 303 314 312 311 310 307 305 306 307 304 306 303 300 299 300
261 265 265 262 264 260 265 280 278 271 233 231 235 249 257 265 273 270 262 262 262 260 260 259 257 258 259 262 277 290 295 296 294 290 291 297 299 301 304 305 302 300 299 297 296 295 294 294 294
261 262 264 258 247 252 251 259 249 241 233 234 255 259 260 261 262 253 253 252 249 249 252 250 252 254 258 266 274 275 276 278 286 294 298 299 297 295 296 296 295 293 292 292 292 292 291 290 290
245 243 236 244 243 249 246 226 220 226 229 234 245 252 258 260 259 253 252 249 247 248 249 251 253 255 261 269 278 286 289 293 296 300 303 303 303 304 304 303 301 298 294 292 287 285 285 286 285
217 203 188 236 208 229 201 218 231 202 215 232 242 239 249 256 256 256 251 245 243 246 250 254 256 262 275 288 297 303 305 306 307 309 310 310 310 310 310 308 305 302 297 290 287 280 276 278 278
221 208 193 207 200 227 209 224 229 219 233 239 224 232 241 248 253 252 246 242 244 245 250 254 260 273 291 302 310 311 311 311 312 311 310 309 309 308 308 306 305 302 300 295 292 289 284 282 279
210 208 222 236 246 276 231 240 238 235 233 225 228 235 247 261 268 256 250 246 244 244 249 259 276 290 297 304 308 309 309 308 307 307 307 306 307 308 308 307 306 304 302 300 297 293 288 282 280
219 217 203 211 209 260 249 242 235 201 209 216 233 244 255 258 260 261 247 240 238 246 260 278 289 293 298 303 304 306 306 305 305 304 303 305 306 307 307 306 304 302 299 297 296 295 293 291 288
210 207 206 212 218 185 229 237 160 189 189 202 231 252 267 266 265 249 235 236 247 262 277 287 295 297 298 302 304 302 302 302 302 303 305 305 305 304 302 301 300 299 298 297 295 295 294 293 292
227 227 223 216 215 226 246 256 204 234 228 255 275 271 266 260 256 247 242 247 262 277 288 295 296 294 294 295 296 298 299 301 302 301 300 302 302 302 302 301 298 297 296 295 295 295 296 296 295
Height
3187 3189 3191 3193 3197 3194 3194 3197 3196 3196 3197 3197 3197 3197 3198 3198 3198 3202 3200 3199 3199 3199 3199 3200 3201 3202 3202 3203 3204 3205 3205 3206 3208 3208 3209 3210 3210 3209 3209 3209 3209 3209 3208 3208 3208 3207 3207 3207 3206
3188 3190 3192 3193 3195 3194 3196 3196 3197 3197 3198 3198 3198 3198 3199 3199 3199 3200 3200 3200 3199 3199 3200 3200 3201 3202 3203 3203 3204 3205 3206 3207 3208 3208 3209 3209 3209 3209 3209 3208 3208 3208 3207 3207 3207 3207 3207 3207 3207
3190 3191 3193 3193 3194 3194 3196 3196 3197 3198 3198 3198 3198 3199 3199 3200 3200 3200 3200 3200 3200 3200 3200 3200 3201 3202 3202 3203 3204 3205 3205 3206 3207 3207 3207 3208 3208 3208 3208 3207 3207 3207 3206 3206 3206 3206 3206 3206 3206
3190 3193 3194 3194 3193 3195 3195 3196 3197 3198 3198 3198 3199 3199 3200 3200 3200 3201 3201 3200 3200 3200 3200 3201 3201 3202 3202 3203 3203 3204 3204 3205 3206 3207 3207 3207 3207 3207 3207 3207 3206 3206 3206 3206 3205 3205 3205 3204 3204
3191 3192 3192 3193 3193 3194 3195 3196 3197 3198 3198 3198 3198 3199 3199 3199 3199 3200 3200 3200 3199 3199 3199 3199 3200 3201 3202 3202 3202 3203 3203 3204 3204 3204 3205 3206 3206 3206 3206 3206 3206 3205 3205 3205 3205 3205 3204 3204 3203
3190 3191 3191 3192 3193 3194 3195 3196 3197 3197 3198 3198 3198 3198 3198 3198 3199 3199 3199 3199 3199 3199 3198 3198 3198 3198 3198 3199 3200 3201 3201 3202 3203 3203 3203 3204 3204 3204 3204 3204 3204 3204 3204 3204 3204 3203 3203 3203 3202
3189 3189 3190 3191 3192 3193 3194 3195 3196 3196 3197 3197 3197 3196 3197 3197 3197 3197 3197 3197 3197 3197 3197 3197 3197 3197 3197 3197 3198 3199 3199 3200 3200 3200 3201 3201 3201 3202 3201 3201 3202 3202 3202 3202 3202 3202 3201 3201 3201
3187 3188 3189 3189 3191 3192 3193 3194 3194 3195 3195 3195 3195 3194 3194 3195 3194 3194 3194 3194 3195 3195 3196 3196 3196 3196 3196 3196 3196 3196 3197 3197 3198 3198 3198 3197 3198 3198 3199 3199 3199 3200 3200 3200 3199 3199 3199 3199 3199
3186 3187 3187 3188 3189 3191 3192 3192 3192 3193 3192 3192 3191 3192 3192 3191 3191 3191 3192 3192 3192 3193 3193 3193 3193 3193 3194 3193 3194 3194 3195 3195 3195 3195 3195 3195 3195 3195 3195 3195 3195 3196 3196 3196 3197 3197 3197 3197 3197
3185 3185 3186 3187 3188 3188 3189 3190 3190 3191 3190 3190 3189 3189 3188 3188 3188 3189 3189 3189 3189 3189 3189 3190 3190 3190 3190 3191 3191 3191 3191 3191 3192 3193 3193 3193 3193 3193 3192 3191 3191 3191 3192 3192 3192 3192 3193 3193 3193
3182 3183 3184 3185 3186 3186 3187 3187 3187 3187 3186 3186 3187 3186 3186 3186 3186 3186 3186 3186 3186 3186 3185 3185 3185 3186 3186 3186 3186 3187 3187 3187 3187 3187 3188 3188 3189 3189 3189 3189 3188 3188 3188 3188 3188 3188 3188 3189 3189
3181 3181 3182 3183 3184 3184 3184 3184 3184 3184 3183 3183 3183 3183 3183 3183 3183 3183 3183 3182 3182 3182 3182 3183 3183 3182 3182 3183 3183 3182 3182 3182 3182 3182 3182 3182 3183 3185 3186 3186 3185 3185 3184 3184 3184 3183 3183 3184 3185
3178 3179 3180 3181 3181 3181 3181 3181 3181 3180 3180 3180 3180 3180 3180 3180 3180 3180 3179 3178 3178 3177 3177 3177 3177 3178 3178 3178 3179 3179 3179 3178 3178 3177 3177 3178 3178 3177 3178 3180 3181 3180 3180 3180 3180 3180 3181 3180 3180
3176 3177 3177 3178 3177 3177 3177 3177 3176 3176 3176 3177 3177 3177 3177 3177 3176 3175 3174 3174 3174 3173 3173 3173 3172 3172 3173 3173 3172 3173 3173 3173 3174 3174 3174 3174 3173 3172 3173 3172 3172 3172 3173 3173 3174 3174 3175 3176 3175
3172 3173 3173 3174 3173 3173 3173 3173 3173 3173 3174 3174 3174 3174 3174 3174 3173 3172 3171 3170 3169 3169 3168 3168 3168 3168 3168 3167 3167 3167 3168 3169 3169 3168 3169 3169 3170 3170 3168 3167 3166 3165 3165 3165 3165 3166 3167 3167 3167
3169 3169 3169 3169 3169 3170 3171 3170 3170 3170 3170 3170 3170 3170 3169 3169 3168 3167 3167 3167 3167 3167 3166 3164 3163 3163 3163 3163 3163 3164 3165 3165 3165 3165 3164 3164 3163 3162 3163 3163 3162 3162 3161 3161 3160 3160 3160 3159 3159
3165 3165 3165 3165 3165 3166 3167 3166 3165 3166 3166 3166 3165 3165 3164 3163 3163 3163 3163 3163 3163 3163 3163 3162 3161 3160 3158 3158 3159 3158 3158 3158 3159 3159 3159 3159 3159 3158 3157 3156 3155 3156 3156 3156 3156 3155 3154 3151 3150
3160 3160 3161 3161 3161 3160 3161 3162 3160 3160 3160 3160 3160 3159 3158 3158 3158 3159 3160 3160 3160 3159 3158 3158 3158 3158 3157 3156 3156 3156 3156 3156 3156 3156 3155 3155 3154 3154 3153 3153 3152 3150 3149 3149 3148 3146 3145 3144 3143
3155 3156 3156 3157 3157 3155 3155 3155 3158 3155 3153 3153 3154 3153 3153 3153 3154 3155 3154 3154 3154 3154 3154 3154 3154 3154 3154 3154 3153 3152 3152 3153 3153 3153 3152 3152 3151 3151 3150 3149 3148 3147 3145 3144 3142 3141 3139 3137 3135
3149 3151 3151 3152 3152 3150 3149 3147 3149 3147 3146 3148 3148 3148 3148 3149 3149 3149 3149 3149 3149 3149 3149 3149 3149 3151 3151 3150 3150 3150 3150 3149 3149 3150 3150 3149 3149 3148 3147 3145 3144 3142 3141 3140 3138 3137 3135 3133 3130
3143 3144 3145 3147 3147 3145 3142 3138 3139 3140 3140 3141 3141 3142 3143 3143 3144 3145 3145 3145 3145 3146 3148 3147 3147 3148 3149 3149 3148 3148 3147 3147 3147 3146 3145 3145 3144 3144 3143 3142 3140 3138 3136 3134 3132 3131 3129 3127 3125
3136 3139 3140 3140 3142 3140 3139 3134 3132 3132 3134 3136 3138 3139 3140 3140 3140 3140 3141 3141 3141 3143 3143 3146 3146 3145 3146 3146 3144 3142 3141 3141 3141 3141 3141 3140 3139 3139 3137 3136 3134 3132 3131 3129 3127 3124 3122 3120 3119
3131 3134 3135 3135 3135 3134 3134 3135 3123 3127 3129 3131 3134 3135 3135 3136 3136 3136 3137 3139 3139 3139 3139 3140 3141 3140 3140 3139 3140 3139 3139 3138 3137 3137 3135 3135 3133 3132 3130 3129 3127 3125 3123 3121 3119 3116 3114 3112 3110
3126 3128 3130 3131 3132 3128 3124 3126 3118 3120 3123 3125 3125 3127 3130 3130 3130 3132 3134 3135 3137 3137 3134 3136 3137 3137 3137 3136 3136 3135 3134 3134 3132 3130 3129 3127 3125 3122 3120 3118 3116 3115 3113 3112 3110 3107 3105 3102 3099
3120 3124 3127 3130 3128 3119 3115 3118 3111 3117 3119 3122 3124 3123 3123 3124 3124 3125 3126 3127 3128 3133 3133 3132 3132 3131 3132 3132 3130 3129 3128 3125 3123 3120 3118 3115 3113 3111 3109 3107 3105 3103 3102 3100 3098 3096 3095 3092 3089
3112 3116 3116 3120 3119 3112 3112 3107 3105 3108 3112 3116 3117 3118 3119 3120 3122 3122 3122 3123 3124 3126 3127 3125 3125 3125 3126 3125 3123 3120 3118 3115 3113 3110 3108 3106 3104 3101 3099 3097 3095 3093 3091 3090 3087 3086 3084 3081 3079
3106 3108 3111 3109 3110 3110 3103 3099 3100 3103 3107 3110 3111 3112 3113 3114 3117 3118 3119 3120 3119 3118 3121 3120 3119 3118 3117 3116 3114 3111 3109 3107 3105 3103 3099 3097 3095 3092 3090 3088 3085 3083 3080 3078 3076 3075 3073 3071 3068
3099 3103 3106 3106 3109 3108 3094 3093 3091 3094 3099 3103 3106 3108 3109 3109 3108 3109 3112 3113 3113 3114 3115 3113 3112 3110 3109 3107 3106 3103 3101 3098 3096 3093 3091 3088 3086 3083 3082 3079 3076 3073 3071 3069 3067 3064 3061 3059 3056
3089 3091 3096 3098 3096 3094 3094 3084 3084 3088 3092 3096 3099 3102 3103 3102 3101 3102 3104 3105 3107 3108 3108 3106 3104 3102 3099 3097 3095 3094 3092 3090 3086 3084 3082 3080 3079 3076 3074 3071 3068 3065 3062 3059 3056 3053 3050 3047 3044
3080 3081 3084 3084 3087 3086 3084 3076 3080 3084 3086 3088 3090 3091 3093 3095 3095 3096 3098 3099 3099 3101 3099 3096 3094 3093 3091 3089 3087 3085 3083 3081 3078 3076 3075 3072 3069 3067 3064 3061 3058 3055 3052 3049 3046 3042 3039 3035 3031